Find Kosmos-1995

NORAD ID: 19786 Int'l Des: 1989-009 Owner: UNKS Country: SU operational
LEOCIRCULARPOLAR

リアルタイム位置

3D地球を読み込み中...

Kosmos-1995について

説明を読み込み中...

次回通過

Passes for default location (London). Set your location on the main map for personalized predictions.

高度履歴

Loading altitude history...

軌道要素

1 19786U 89009B 26106.90241705 .00000013 00000-0 15722-4 0 9995
2 19786 82.6212 67.6246 0002003 263.1716 123.6356 12.62233812712619
Epoch: Apr 16, 2026 • Age: 11 hours

現在のステータス

高度 1416.2 km
速度 7.15 km/s
衛星直下点 9.07°N, 88.31°E
打ち上げ日 Feb 10, 1989
運用期間 37.1 years
タイプ other

技術仕様

分類 Payload
質量 225.00 kg
乾燥質量 225.00 kg
総質量 225.00 kg
長さ 1.60 m
直径 0.80 m
スパン 7.00 m
形状 Cyl + Ant
製造者 NPOPM
バスタイプ Strela-3
フェーズステータス In Orbit
所有者/国 UNKS/SU

Most Searched